Time,TemperatureF,DewpointF,PressureIn,WindDirection,WindDirectionDegrees,WindSpeedMPH,WindSpeedGustMPH,Humidity,HourlyPrecipIn,Conditions,Clouds,dailyrainin,SolarRadiationWatts/m^2,SoftwareType,DateUTC
2013-03-21 00:03:00,39.0,37.0,-100.00,NNW,329,0.0,2.0,92,0.00,,,0.01,0.000000,,2013-03-21 05:03:00,
2013-03-21 00:12:00,39.0,37.0,-100.00,NNW,329,0.0,2.0,92,0.00,,,0.01,0.000000,,2013-03-21 05:12:00,
2013-03-21 00:22:00,39.0,37.0,-100.00,NNW,329,0.0,2.0,92,0.00,,,0.01,0.000000,,2013-03-21 05:22:00,
2013-03-21 00:52:00,39.0,35.0,-100.00,NNE,25,0.0,4.0,87,0.00,,,0.01,0.000000,,2013-03-21 05:52:00,
2013-03-21 01:03:00,39.0,35.0,-100.00,NNE,25,0.0,4.0,87,0.00,,,0.01,0.000000,,2013-03-21 06:03:00,
2013-03-21 01:12:00,39.0,35.0,-100.00,NNE,25,0.0,4.0,87,0.00,,,0.01,0.000000,,2013-03-21 06:12:00,
2013-03-21 01:22:00,39.0,35.0,-100.00,NNE,25,0.0,4.0,87,0.00,,,0.01,0.000000,,2013-03-21 06:22:00,
2013-03-21 01:52:00,38.0,34.0,-100.00,North,354,1.0,3.0,87,0.00,,,0.01,0.000000,,2013-03-21 06:52:00,
2013-03-21 02:02:00,38.0,34.0,-100.00,North,354,1.0,3.0,87,0.00,,,0.01,0.000000,,2013-03-21 07:02:00,
2013-03-21 02:12:00,38.0,34.0,-100.00,North,354,1.0,3.0,87,0.00,,,0.01,0.000000,,2013-03-21 07:12:00,
2013-03-21 02:22:00,38.0,34.0,-100.00,North,354,1.0,3.0,87,0.00,,,0.01,0.000000,,2013-03-21 07:22:00,
2013-03-21 02:52:00,36.0,33.0,-100.00,WNW,286,0.0,2.0,89,0.00,,,0.01,0.000000,,2013-03-21 07:52:00,
2013-03-21 03:02:00,36.0,33.0,-100.00,WNW,286,0.0,2.0,89,0.00,,,0.01,0.000000,,2013-03-21 08:02:00,
2013-03-21 03:13:00,36.0,33.0,-100.00,WNW,286,0.0,2.0,89,0.00,,,0.01,0.000000,,2013-03-21 08:13:00,
2013-03-21 03:23:00,36.0,33.0,-100.00,WNW,286,0.0,2.0,89,0.00,,,0.01,0.000000,,2013-03-21 08:23:00,
2013-03-21 03:52:00,35.0,33.0,-100.00,North,357,0.0,1.0,92,0.00,,,0.01,0.000000,,2013-03-21 08:52:00,
2013-03-21 04:02:00,35.0,33.0,-100.00,North,357,0.0,1.0,92,0.00,,,0.01,0.000000,,2013-03-21 09:02:00,
2013-03-21 04:11:00,35.0,33.0,-100.00,North,357,0.0,1.0,92,0.00,,,0.01,0.000000,,2013-03-21 09:11:00,
2013-03-21 04:21:00,35.0,33.0,-100.00,North,357,0.0,1.0,92,0.00,,,0.01,0.000000,,2013-03-21 09:21:00,
2013-03-21 04:53:00,36.0,34.0,-100.00,NNW,338,0.0,2.0,94,0.00,,,0.01,0.000000,,2013-03-21 09:53:00,
2013-03-21 05:03:00,36.0,34.0,-100.00,NNW,338,0.0,2.0,94,0.00,,,0.01,0.000000,,2013-03-21 10:03:00,
2013-03-21 05:12:00,36.0,34.0,-100.00,NNW,338,0.0,2.0,94,0.00,,,0.01,0.000000,,2013-03-21 10:12:00,
2013-03-21 05:23:00,36.0,34.0,-100.00,NNW,338,0.0,2.0,94,0.00,,,0.01,0.000000,,2013-03-21 10:23:00,
2013-03-21 05:53:00,36.0,35.0,-100.00,North,3,1.0,2.0,95,0.00,,,0.01,0.000000,,2013-03-21 10:53:00,
2013-03-21 06:03:00,36.0,35.0,-100.00,North,3,1.0,2.0,95,0.00,,,0.01,0.000000,,2013-03-21 11:03:00,
2013-03-21 06:12:00,36.0,35.0,-100.00,North,3,1.0,2.0,95,0.00,,,0.01,0.000000,,2013-03-21 11:12:00,
2013-03-21 06:22:00,36.0,35.0,-100.00,North,3,1.0,2.0,95,0.00,,,0.01,0.000000,,2013-03-21 11:22:00,
2013-03-21 06:53:00,37.0,35.0,-100.00,North,11,1.0,2.0,93,0.00,,,0.01,0.000000,,2013-03-21 11:53:00,
2013-03-21 07:02:00,37.0,35.0,-100.00,North,11,1.0,2.0,93,0.00,,,0.01,0.000000,,2013-03-21 12:02:00,
2013-03-21 07:12:00,37.0,35.0,-100.00,North,11,1.0,2.0,93,0.00,,,0.01,0.000000,,2013-03-21 12:12:00,
2013-03-21 07:22:00,37.0,35.0,-100.00,North,11,1.0,2.0,93,0.00,,,0.01,0.000000,,2013-03-21 12:22:00,
2013-03-21 07:53:00,37.0,35.0,-100.00,NNW,336,0.0,2.0,93,0.00,,,0.01,5.000000,,2013-03-21 12:53:00,
2013-03-21 08:02:00,37.0,35.0,-100.00,NNW,336,0.0,2.0,93,0.00,,,0.01,5.000000,,2013-03-21 13:02:00,
2013-03-21 08:12:00,37.0,35.0,-100.00,NNW,336,0.0,2.0,93,0.00,,,0.01,5.000000,,2013-03-21 13:12:00,
2013-03-21 08:22:00,37.0,35.0,-100.00,NNW,336,0.0,2.0,93,0.00,,,0.01,5.000000,,2013-03-21 13:22:00,
2013-03-21 08:52:00,46.0,39.0,-100.00,NNE,20,3.0,5.0,76,0.00,,,0.01,133.000000,,2013-03-21 13:52:00,
2013-03-21 09:02:00,46.0,39.0,-100.00,NNE,20,3.0,5.0,76,0.00,,,0.01,133.000000,,2013-03-21 14:02:00,
2013-03-21 09:12:00,46.0,39.0,-100.00,NNE,20,3.0,5.0,76,0.00,,,0.01,133.000000,,2013-03-21 14:12:00,
2013-03-21 09:21:00,46.0,39.0,-100.00,NNE,20,3.0,5.0,76,0.00,,,0.01,133.000000,,2013-03-21 14:21:00,
2013-03-21 09:52:00,53.0,33.0,-100.00,NNE,30,5.0,10.0,47,0.00,,,0.01,394.000000,,2013-03-21 14:52:00,
2013-03-21 10:03:00,53.0,33.0,-100.00,NNE,30,5.0,10.0,47,0.00,,,0.01,394.000000,,2013-03-21 15:03:00,
2013-03-21 10:12:00,53.0,33.0,-100.00,NNE,30,5.0,10.0,47,0.00,,,0.01,394.000000,,2013-03-21 15:12:00,
2013-03-21 10:22:00,53.0,33.0,-100.00,NNE,30,5.0,10.0,47,0.00,,,0.01,394.000000,,2013-03-21 15:22:00,
2013-03-21 10:53:00,55.0,28.0,-100.00,NNE,15,5.0,11.0,35,0.00,,,0.01,579.000000,,2013-03-21 15:53:00,
2013-03-21 11:03:00,55.0,28.0,-100.00,NNE,15,5.0,11.0,35,0.00,,,0.01,579.000000,,2013-03-21 16:03:00,
2013-03-21 11:12:00,55.0,28.0,-100.00,NNE,15,5.0,11.0,35,0.00,,,0.01,579.000000,,2013-03-21 16:12:00,
2013-03-21 11:23:00,55.0,28.0,-100.00,NNE,15,5.0,11.0,35,0.00,,,0.01,579.000000,,2013-03-21 16:23:00,
2013-03-21 11:53:00,58.0,28.0,-100.00,North,7,5.0,10.0,32,0.00,,,0.01,607.000000,,2013-03-21 16:53:00,
2013-03-21 12:02:00,58.0,28.0,-100.00,North,7,5.0,10.0,32,0.00,,,0.01,607.000000,,2013-03-21 17:02:00,
2013-03-21 12:12:00,58.0,28.0,-100.00,North,7,5.0,10.0,32,0.00,,,0.01,607.000000,,2013-03-21 17:12:00,
2013-03-21 12:23:00,58.0,28.0,-100.00,North,7,5.0,10.0,32,0.00,,,0.01,607.000000,,2013-03-21 17:23:00,
2013-03-21 12:53:00,61.0,28.0,-100.00,NNW,347,6.0,11.0,28,0.00,,,0.00,883.000000,,2013-03-21 17:53:00,
2013-03-21 13:02:00,61.0,28.0,-100.00,NNW,347,6.0,11.0,28,0.00,,,0.00,883.000000,,2013-03-21 18:02:00,
2013-03-21 13:12:00,61.0,28.0,-100.00,NNW,347,6.0,11.0,28,0.00,,,0.00,883.000000,,2013-03-21 18:12:00,
2013-03-21 13:23:00,61.0,28.0,-100.00,NNW,347,6.0,11.0,28,0.00,,,0.00,883.000000,,2013-03-21 18:23:00,
2013-03-21 13:52:00,63.0,26.0,-100.00,NW,320,6.0,10.0,24,0.00,,,0.00,842.000000,,2013-03-21 18:52:00,
2013-03-21 14:02:00,63.0,26.0,-100.00,NW,320,6.0,10.0,24,0.00,,,0.00,842.000000,,2013-03-21 19:02:00,
2013-03-21 14:12:00,63.0,26.0,-100.00,NW,320,6.0,10.0,24,0.00,,,0.00,842.000000,,2013-03-21 19:12:00,
2013-03-21 14:22:00,63.0,26.0,-100.00,NW,320,6.0,10.0,24,0.00,,,0.00,842.000000,,2013-03-21 19:22:00,
2013-03-21 14:53:00,66.0,24.0,-100.00,NW,321,4.0,8.0,20,0.00,,,0.00,880.000000,,2013-03-21 19:53:00,
2013-03-21 15:02:00,66.0,24.0,-100.00,NW,321,4.0,8.0,20,0.00,,,0.00,880.000000,,2013-03-21 20:02:00,
2013-03-21 15:12:00,66.0,24.0,-100.00,NW,321,4.0,8.0,20,0.00,,,0.00,880.000000,,2013-03-21 20:12:00,
2013-03-21 15:22:00,66.0,24.0,-100.00,NW,321,4.0,8.0,20,0.00,,,0.00,880.000000,,2013-03-21 20:22:00,
2013-03-21 15:53:00,64.0,37.0,-100.00,SSE,153,7.0,11.0,36,0.00,,,0.00,780.000000,,2013-03-21 20:53:00,
2013-03-21 16:02:00,64.0,37.0,-100.00,SSE,153,7.0,11.0,36,0.00,,,0.00,780.000000,,2013-03-21 21:02:00,
2013-03-21 16:12:00,64.0,37.0,-100.00,SSE,153,7.0,11.0,36,0.00,,,0.00,780.000000,,2013-03-21 21:12:00,
2013-03-21 16:22:00,64.0,37.0,-100.00,SSE,153,7.0,11.0,36,0.00,,,0.00,780.000000,,2013-03-21 21:22:00,
2013-03-21 16:53:00,63.0,38.0,-100.00,South,179,7.0,12.0,39,0.00,,,0.00,622.000000,,2013-03-21 21:53:00,
2013-03-21 17:03:00,63.0,38.0,-100.00,South,179,7.0,12.0,39,0.00,,,0.00,622.000000,,2013-03-21 22:03:00,
2013-03-21 17:13:00,63.0,38.0,-100.00,South,179,7.0,12.0,39,0.00,,,0.00,622.000000,,2013-03-21 22:13:00,
2013-03-21 17:23:00,63.0,38.0,-100.00,South,179,7.0,12.0,39,0.00,,,0.00,622.000000,,2013-03-21 22:23:00,
2013-03-21 17:53:00,61.0,36.0,-100.00,SSE,164,6.0,14.0,40,0.00,,,0.00,450.000000,,2013-03-21 22:53:00,
2013-03-21 18:02:00,61.0,36.0,-100.00,SSE,164,6.0,14.0,40,0.00,,,0.00,450.000000,,2013-03-21 23:02:00,
2013-03-21 18:12:00,61.0,36.0,-100.00,SSE,164,6.0,14.0,40,0.00,,,0.00,450.000000,,2013-03-21 23:12:00,
2013-03-21 18:22:00,61.0,36.0,-100.00,SSE,164,6.0,14.0,40,0.00,,,0.00,450.000000,,2013-03-21 23:22:00,
2013-03-21 18:53:00,58.0,38.0,-100.00,SSW,192,3.0,10.0,47,0.00,,,0.00,118.000000,,2013-03-21 23:53:00,
2013-03-21 19:03:00,58.0,38.0,-100.00,SSW,192,3.0,10.0,47,0.00,,,0.00,118.000000,,2013-03-22 00:03:00,
2013-03-21 19:12:00,58.0,38.0,-100.00,SSW,192,3.0,10.0,47,0.00,,,0.00,118.000000,,2013-03-22 00:12:00,
2013-03-21 19:22:00,58.0,38.0,-100.00,SSW,192,3.0,10.0,47,0.00,,,0.00,118.000000,,2013-03-22 00:22:00,
2013-03-21 19:52:00,54.0,39.0,-100.00,SW,236,1.0,5.0,57,0.00,,,0.00,25.000000,,2013-03-22 00:52:00,
2013-03-21 20:02:00,54.0,39.0,-100.00,SW,236,1.0,5.0,57,0.00,,,0.00,25.000000,,2013-03-22 01:02:00,
2013-03-21 20:12:00,54.0,39.0,-100.00,SW,236,1.0,5.0,57,0.00,,,0.00,25.000000,,2013-03-22 01:12:00,
2013-03-21 20:22:00,54.0,39.0,-100.00,SW,236,1.0,5.0,57,0.00,,,0.00,25.000000,,2013-03-22 01:22:00,
2013-03-21 20:53:00,51.0,42.0,-100.00,WNW,303,0.0,2.0,71,0.00,,,0.00,0.000000,,2013-03-22 01:53:00,
2013-03-21 21:02:00,51.0,42.0,-100.00,WNW,303,0.0,2.0,71,0.00,,,0.00,0.000000,,2013-03-22 02:02:00,
2013-03-21 21:12:00,51.0,42.0,-100.00,WNW,303,0.0,2.0,71,0.00,,,0.00,0.000000,,2013-03-22 02:12:00,
2013-03-21 21:22:00,51.0,42.0,-100.00,WNW,303,0.0,2.0,71,0.00,,,0.00,0.000000,,2013-03-22 02:22:00,
2013-03-21 21:53:00,47.0,42.0,-100.00,NNE,15,0.0,2.0,83,0.00,,,0.00,0.000000,,2013-03-22 02:53:00,
2013-03-21 22:02:00,47.0,42.0,-100.00,NNE,15,0.0,2.0,83,0.00,,,0.00,0.000000,,2013-03-22 03:02:00,
2013-03-21 22:12:00,47.0,42.0,-100.00,NNE,15,0.0,2.0,83,0.00,,,0.00,0.000000,,2013-03-22 03:12:00,
2013-03-21 22:22:00,47.0,42.0,-100.00,NNE,15,0.0,2.0,83,0.00,,,0.00,0.000000,,2013-03-22 03:22:00,
2013-03-21 22:53:00,45.0,41.0,-100.00,NNE,17,0.0,0.0,85,0.00,,,0.00,0.000000,,2013-03-22 03:53:00,
2013-03-21 23:03:00,45.0,41.0,-100.00,NNE,17,0.0,0.0,85,0.00,,,0.00,0.000000,,2013-03-22 04:03:00,
2013-03-21 23:12:00,45.0,41.0,-100.00,NNE,17,0.0,0.0,85,0.00,,,0.00,0.000000,,2013-03-22 04:12:00,
2013-03-21 23:23:00,45.0,41.0,-100.00,NNE,17,0.0,0.0,85,0.00,,,0.00,0.000000,,2013-03-22 04:23:00,
2013-03-21 23:52:00,45.0,42.0,-100.00,NE,43,0.0,1.0,88,0.00,,,0.00,0.000000,,2013-03-22 04:52:00,